EN

Hourly Weather Ludlow

Today, 1 December, Tuesday

Time Temperature Precipitation Wind Pressure Humidity
00:00 +13°C° 0.5 mm 2 mps 706 mmHg 98%
01:00 +13°C° 0.5 mm 2 mps 706 mmHg 98%
02:00 +13°C° 0.1 mm 2 mps 706 mmHg 97%
03:00 +12°C° 0.1 mm 2 mps 706 mmHg 97%
04:00 +12°C° 0.1 mm 2 mps 706 mmHg 96%
05:00 +12°C° 0.1 mm 2 mps 707 mmHg 96%
06:00 +10°C° 0.1 mm 2 mps 707 mmHg 97%
07:00 +10°C° 0.1 mm 2 mps 707 mmHg 97%
08:00 +10°C° 0.2 mm 3 mps 707 mmHg 93%
09:00 +10°C° 0.2 mm 3 mps 707 mmHg 90%
10:00 +10°C° 0.2 mm 4 mps 707 mmHg 86%
11:00 +10°C° 0.2 mm 4 mps 707 mmHg 83%
12:00 +8°C° 0.2 mm 4 mps 707 mmHg 80%
13:00 +8°C° 0.2 mm 4 mps 707 mmHg 77%
14:00 +7°C° 0.3 mm 4 mps 707 mmHg 77%
15:00 +6°C° 0.3 mm 4 mps 707 mmHg 78%
16:00 +5°C° 0.3 mm 4 mps 707 mmHg 78%
17:00 +3°C° 0.1 mm 4 mps 708 mmHg 81%
18:00 +1°C° 0.1 mm 4 mps 708 mmHg 84%
19:00 +1°C° 0.1 mm 3 mps 709 mmHg 87%
20:00 0°C° 0.1 mm 4 mps 709 mmHg 85%
21:00 -1°C° 0.1 mm 4 mps 710 mmHg 83%
22:00 -1°C° 0.1 mm 4 mps 710 mmHg 80%
23:00 -1°C° 0 mm 3 mps 711 mmHg 82%

Tomorrow, 2 December, Wednesday

Time Temperature Precipitation Wind Pressure Humidity
00:00 -1°C° 0 mm 3 mps 711 mmHg 84%
01:00 -2°C° 0 mm 2 mps 711 mmHg 86%
02:00 -2°C° 0 mm 2 mps 711 mmHg 86%
03:00 -2°C° 0 mm 2 mps 712 mmHg 85%
04:00 -3°C° 0 mm 2 mps 712 mmHg 85%
05:00 -3°C° 0 mm 2 mps 712 mmHg 84%
06:00 -3°C° 0 mm 2 mps 713 mmHg 83%
07:00 -2°C° 0 mm 2 mps 713 mmHg 83%
08:00 -2°C° 0 mm 2 mps 713 mmHg 80%
09:00 -1°C° 0 mm 3 mps 714 mmHg 77%
10:00 0°C° 0 mm 3 mps 714 mmHg 74%
11:00 0°C° 0 mm 3 mps 714 mmHg 74%
12:00 0°C° 0 mm 3 mps 714 mmHg 74%
13:00 0°C° 0 mm 3 mps 714 mmHg 74%
14:00 0°C° 0.1 mm 3 mps 714 mmHg 77%
15:00 0°C° 0.1 mm 3 mps 714 mmHg 80%
16:00 -1°C° 0.1 mm 3 mps 715 mmHg 83%
17:00 -1°C° 0.1 mm 3 mps 715 mmHg 84%
18:00 -2°C° 0.1 mm 3 mps 715 mmHg 86%
19:00 -2°C° 0.1 mm 3 mps 716 mmHg 88%
20:00 -2°C° 0 mm 3 mps 716 mmHg 86%
21:00 -4°C° 0 mm 4 mps 716 mmHg 84%
22:00 -4°C° 0 mm 4 mps 716 mmHg 82%
23:00 -4°C° 0 mm 3 mps 717 mmHg 82%

Day after tomorrow, 3 December, Thursday

Time Temperature Precipitation Wind Pressure Humidity
00:00 -5°C° 0 mm 3 mps 717 mmHg 81%
01:00 -5°C° 0 mm 3 mps 717 mmHg 81%
02:00 -5°C° 0 mm 3 mps 718 mmHg 80%
03:00 -5°C° 0 mm 3 mps 718 mmHg 79%
04:00 -5°C° 0 mm 3 mps 718 mmHg 78%
05:00 -5°C° 0 mm 3 mps 719 mmHg 78%
06:00 -5°C° 0 mm 3 mps 719 mmHg 78%
07:00 -5°C° 0 mm 3 mps 720 mmHg 78%
08:00 -4°C° 0 mm 3 mps 720 mmHg 73%
09:00 -2°C° 0 mm 3 mps 721 mmHg 68%
10:00 -2°C° 0 mm 4 mps 721 mmHg 63%
11:00 -1°C° 0 mm 4 mps 721 mmHg 57%
12:00 0°C° 0 mm 4 mps 721 mmHg 51%
13:00 +1°C° 0 mm 4 mps 721 mmHg 45%
14:00 +1°C° 0 mm 3 mps 721 mmHg 49%
15:00 0°C° 0 mm 3 mps 721 mmHg 54%
16:00 -1°C° 0 mm 2 mps 721 mmHg 58%
17:00 -1°C° 0 mm 2 mps 721 mmHg 67%
18:00 -2°C° 0 mm 2 mps 721 mmHg 77%
19:00 -3°C° 0 mm 2 mps 721 mmHg 86%
20:00 -2°C° 0 mm 2 mps 721 mmHg 86%
21:00 -2°C° 0 mm 2 mps 720 mmHg 86%
22:00 -2°C° 0 mm 2 mps 720 mmHg 86%
23:00 -2°C° 0 mm 2 mps 720 mmHg 84%

4 December, Friday

Time Temperature Precipitation Wind Pressure Humidity
00:00 -2°C° 0 mm 2 mps 720 mmHg 83%
01:00 -2°C° 0 mm 3 mps 719 mmHg 82%
02:00 -3°C° 0 mm 2 mps 719 mmHg 82%
03:00 -3°C° 0 mm 2 mps 719 mmHg 82%
04:00 -3°C° 0 mm 2 mps 719 mmHg 82%
05:00 -3°C° 0 mm 2 mps 719 mmHg 80%
06:00 -3°C° 0 mm 2 mps 719 mmHg 79%
07:00 -2°C° 0 mm 2 mps 719 mmHg 77%
08:00 -1°C° 0 mm 2 mps 719 mmHg 70%
09:00 0°C° 0 mm 3 mps 719 mmHg 64%
10:00 +1°C° 0 mm 3 mps 719 mmHg 58%
11:00 +2°C° 0 mm 3 mps 718 mmHg 55%
12:00 +3°C° 0 mm 3 mps 718 mmHg 53%
13:00 +3°C° 0 mm 3 mps 717 mmHg 51%
14:00 +2°C° 0 mm 3 mps 717 mmHg 56%
15:00 +2°C° 0 mm 2 mps 717 mmHg 62%
16:00 +1°C° 0 mm 2 mps 717 mmHg 68%
17:00 -1°C° 0 mm 2 mps 717 mmHg 71%
18:00 +1°C° 0 mm 1 mps 717 mmHg 74%
19:00 0°C° 0 mm 1 mps 717 mmHg 77%
20:00 0°C° 0 mm 1 mps 717 mmHg 78%
21:00 0°C° 0 mm 1 mps 717 mmHg 80%
22:00 0°C° 0 mm 1 mps 717 mmHg 82%
23:00 0°C° 0.1 mm 1 mps 717 mmHg 86%

5 December, Saturday

Time Temperature Precipitation Wind Pressure Humidity
00:00 0°C° 0.1 mm 1 mps 716 mmHg 90%
01:00 0°C° 0.1 mm 1 mps 716 mmHg 94%
02:00 0°C° 0.1 mm 1 mps 716 mmHg 95%
03:00 0°C° 0.1 mm 1 mps 716 mmHg 96%
04:00 +1°C° 0.1 mm 1 mps 716 mmHg 97%
05:00 0°C° 0 mm 1 mps 717 mmHg 96%
06:00 0°C° 0 mm 1 mps 717 mmHg 96%
07:00 0°C° 0 mm 1 mps 717 mmHg 95%
08:00 +1°C° 0 mm 1 mps 717 mmHg 89%
09:00 +2°C° 0 mm 1 mps 717 mmHg 84%
10:00 +3°C° 0 mm 1 mps 718 mmHg 78%
11:00 +3°C° 0 mm 1 mps 717 mmHg 75%
12:00 +3°C° 0 mm 1 mps 717 mmHg 72%
13:00 +4°C° 0 mm 1 mps 717 mmHg 68%
14:00 +3°C° 0 mm 1 mps 716 mmHg 71%
15:00 +2°C° 0 mm 1 mps 716 mmHg 74%
16:00 +2°C° 0 mm 1 mps 716 mmHg 77%
17:00 +1°C° 0 mm 1 mps 716 mmHg 77%
18:00 +1°C° 0 mm 1 mps 716 mmHg 77%
19:00 0°C° 0 mm 0 mps 716 mmHg 77%
20:00 -1°C° 0 mm 0 mps 716 mmHg 79%
21:00 -1°C° 0 mm 0 mps 715 mmHg 81%
22:00 -2°C° 0 mm 0 mps 715 mmHg 83%
23:00 -2°C° 0 mm 0 mps 714 mmHg 85%

6 December, Sunday

Time Temperature Precipitation Wind Pressure Humidity
00:00 -2°C° 0 mm 0 mps 714 mmHg 86%
01:00 -3°C° 0 mm 0 mps 713 mmHg 87%
02:00 -3°C° 0 mm 0 mps 712 mmHg 87%
03:00 -3°C° 0 mm 0 mps 712 mmHg 87%
04:00 -3°C° 0 mm 0 mps 711 mmHg 87%
05:00 -3°C° 0 mm 0 mps 711 mmHg 88%
06:00 -2°C° 0 mm 1 mps 710 mmHg 88%
07:00 -2°C° 0 mm 1 mps 710 mmHg 88%
08:00 -1°C° 0 mm 1 mps 710 mmHg 83%
09:00 0°C° 0 mm 1 mps 709 mmHg 77%
10:00 +1°C° 0 mm 1 mps 709 mmHg 72%
11:00 +1°C° 0 mm 1 mps 708 mmHg 70%
12:00 +1°C° 0 mm 2 mps 707 mmHg 69%
13:00 +1°C° 0 mm 2 mps 706 mmHg 67%
14:00 -1°C° 0 mm 2 mps 706 mmHg 70%
15:00 -1°C° 0 mm 2 mps 705 mmHg 73%
16:00 -2°C° 0 mm 2 mps 705 mmHg 76%
17:00 -2°C° 0 mm 2 mps 705 mmHg 78%
18:00 -4°C° 0 mm 3 mps 705 mmHg 80%
19:00 -4°C° 0 mm 3 mps 705 mmHg 81%
20:00 -5°C° 0 mm 3 mps 705 mmHg 82%
21:00 -5°C° 0 mm 3 mps 705 mmHg 82%
22:00 -5°C° 0 mm 3 mps 704 mmHg 83%
23:00 -5°C° 0 mm 3 mps 705 mmHg 81%
Show more